Regional Weather Roundup
Issued by NWS

Home | Current Version | Previous Version | Text Only | Print | Product List | Glossary On
Versions: 1 2 3 4 5 6 7 8 9 10 11 12 13 14 15 16 17 18 19 20 21 22 23 24 25 26 27 28 29 30 31 32 33 34 35 36 37 38 39 40 41 42 43 44 45 46 47 48 49 50
000
ASUS44 KOUN 012110
RWROK

WEATHER ROUNDUP FOR OKLAHOMA
NATIONAL WEATHER SERVICE NORMAN OK
400 PM CDT WED JUL 01 2015

NOTE: "FAIR" INDICATES FEW OR NO CLOUDS BELOW 12,000 FEET WITH NO
      SIGNIFICANT WEATHER AND/OR OBSTRUCTIONS TO VISIBILITY.

OKZ001>007-009>012-014-015-017-012200-
NORTHWEST OKLAHOMA AND THE PANHANDLE

CITY           SKY/WX    TMP DP  RH WIND       PRES   REMARKS
GAGE           SUNNY     98  61  29 SW14G23   29.86F HX  98
GUYMON         MOSUNNY   99  53  21 NE14      29.91F HX  96
ENID/WOODRING  MOSUNNY  100  64  30 S25G32    29.79F HX 103
$$

OKZ016-021>023-033>039-044-045-012200-
SOUTHWEST OKLAHOMA

CITY           SKY/WX    TMP DP  RH WIND       PRES   REMARKS
LAWTON/REGL    SUNNY     96  66  37 S20G26    29.89F HX  99
LAWTON/FT SILL MOSUNNY   94  70  45 SW14G22   29.88F HX 100
FREDERICK      SUNNY     97  66  36 SW22      29.88F HX 100
CLINTON        MOSUNNY   96  64  34 SW18G28   29.90F HX  98
HOBART         SUNNY     95  65  37 SW22G30   29.89F HX  97
ALTUS AFB      SUNNY     97  70  41 S17G26    29.88F HX 103
$$

OKZ018>020-024>031-012200-
CENTRAL OKLAHOMA

CITY           SKY/WX    TMP DP  RH WIND       PRES   REMARKS
OKLAHOMA CITY  MOSUNNY   95  70  44 S18G26    29.88F HX 101
OKC/WILEY POST SUNNY     96  69  41 SW20G28   29.87F HX 102
OKC/TINKER AFB SUNNY     93  70  46 S22G29    29.88S HX  99
STILLWATER     SUNNY     97  67  37 SW18G29   29.83F HX 101
GUTHRIE        SUNNY     97  67  37 SW18G28   29.84F HX 101
$$

OKZ008-013-054>072-012200-
NORTHEAST OKLAHOMA

CITY           SKY/WX    TMP DP  RH WIND       PRES   REMARKS
TULSA          MOSUNNY   96  71  44 SW18G32   29.84F HX 103
TULSA/JONES    MOSUNNY   96  72  45 S18G28    29.84F HX 104
PONCA CITY     MOSUNNY  100  66  32 SW20G30   29.79S HX 104
BARTLESVILLE   PTSUNNY   90  73  57 S13G22    29.83F HX  98
MUSKOGEE       PTSUNNY   88  73  61 S13       29.90F HX  95
$$

OKZ032-040>043-046>053-073>077-012200-
SOUTH CENTRAL/SOUTHEAST OKLAHOMA

CITY           SKY/WX    TMP DP  RH WIND       PRES   REMARKS
ARDMORE/DWNTWN MOSUNNY   90  64  43 SW9G16    29.92F HX  91
MCALESTER      SUNNY     92  70  48 SW17G25   29.92S HX  97
$$



USA.gov is the U.S. government's official web portal to all federal, state and local government web resources and services.